Regional Weather Roundup
Issued by NWS Midland/Odessa, TX

Skip options and go directly to product.
Home | Oldest Version | Next Version | Current Version | All | Text Only | Save Text | Print | Product List | Glossary On

Skip product version selection by date and time.   
320
ASUS44 KMAF 220401
RWRMAF
MIDLAND AREA WEATHER ROUNDUP
NATIONAL WEATHER SERVICE MIDLAND TX
1000 PM CST SAT JAN 21 2017

...IN SOUTHWEST TEXAS AND SOUTHEAST NEW MEXICO...

CITY           SKY/WX    TMP DP  RH WIND       PRES   REMARKS
ALPINE         CLEAR     43  26  49 W26G40    29.87R WCI  33
ANDREWS        FAIR      46  26  45 W23G35    29.61R WCI  38
ARTESIA        CLEAR     45  23  42 W24G31    29.65R WCI  36
BIG SPRING     CLEAR     49  28  43 SW18G25   29.61R
CARLSBAD       LGT RAIN  47  25  42 W43G52    29.63S WCI  36
DRYDEN           N/A     55  33  43 NW18G28   29.72R
FORT STOCKTON  CLEAR     49  27  42 W30G38    29.74R
GUAD PASS      CLOUDY    36  23  59 W46G67      N/A  WCI  20
HOBBS          NOT AVBL
MARFA            N/A     39  28  64 MISG      29.87R
MIDLAND AIRPK  CLEAR     51  24  34 W20G32    29.62R
MIDLAND INTL   CLEAR     50  25  37 W26G39    29.62R
ODESSA         CLEAR     49  24  37 W24G35    29.64R
PECOS          CLEAR     48  28  46 W24G35    29.72
PRESIDIO       MOCLDY    49  38  66 W3        29.89R
SEMINOLE       CLEAR     43  30  59 W22G29    29.60R WCI  34
SNYDER         CLEAR     48  32  53 W28G37    29.52R WCI  40
WINK           CLEAR     49  24  37 W25G32    29.66R
$$
...OTHER STATIONS IN TEXAS...

CITY           SKY/WX    TMP DP  RH WIND       PRES   REMARKS
ABILENE        CLEAR     53  31  42 W20G29    29.49F
AMARILLO       RAIN      40  39  97 NW21      29.37R WCI  30
AUSTIN         CLOUDY    66  40  38 W6        29.57S
BROWNSVILLE    PTCLDY    71  56  58 S14       29.46R
CORPUS CHRISTI PTCLDY    74  46  36 NW21      29.54R
DALLAS FTW     CLOUDY    60  43  53 SW14G23   29.42S
DEL RIO        MOCLDY    59  43  55 W22       29.72R
EL PASO        PTCLDY    44  22  41 W31G61    29.88R WCI  34
HOUSTON INT    CLOUDY    66  56  70 W6        29.52R
LUBBOCK        PTCLDY    46  25  43 W29G37    29.43S WCI  37
SAN ANGELO     CLEAR     53  31  42 W31G47    29.58R
SAN ANTONIO    CLOUDY    65  38  36 NW20G30   29.60R
WACO           CLOUDY    55  48  77 SW9       29.53F
WICHITA FALLS  NOT AVBL
$$
...OTHER LOCATIONS IN NEW MEXICO...

CITY           SKY/WX    TMP DP  RH WIND       PRES   REMARKS
ALAMAGORDO     PTCLDY    39  27  60 W13G20    29.84R WCI  32
ALBUQUERQUE    CLOUDY    39  23  52 W5        29.79R WCI  36
CANNON AFB     CLOUDY    42  24  49 NW22G32   29.49R WCI  32
CLOVIS         CLOUDY    43  21  42 NW24G32   29.48R WCI  33
HOLLOMAN AFB   NOT AVBL
ROSWELL        CLEAR     46  22  38 W28G37    29.58F WCI  37
RUIDOSO        CLOUDY    32  18  55 W36G61    29.67  WCI  16
SANTA FE       CLOUDY    33  23  66 W3        29.70R
TRUTH OR CONSE CLEAR     39  19  44 NW24G33   29.85R WCI  28
TUCUMCARI      CLOUDY    43  34  70 W9        29.49R WCI  38
$$

  • National Weather Service
  • Southern Region Headquarters
  • 819 Taylor Street, Room 10A06
  • Fort Worth, TX 76102
  • Page Author: NWS Fort Worth
  • Web Master: SR-SRH.Webmaster@noaa.gov
  •  
  • Page last modified: 30-Sep-2016 6:36 PM UTC
USA.gov is the U.S. government's official web portal to all federal, state and local government web resources and services.